Вернуться в каталог

COSMOS 1249 COOLANT

LostLEO
NORAD 26509·DEBRIS·🇷🇺 Russia

Запущен Mar 5, 1981 с Baikonur Cosmodrome

Loading…

Ближайшие Пролёты (ближайшие 24 часа)

TLE

УстаревшееSource: Space-Track

Эпоха: Jul 20, 2026, 16:07 UTC

1 26509U 81021L   26201.67214651  .00000018  00000-0  83444-4 0  9993
2 26509  64.9623 216.0534 0062819 238.5766 120.9146 13.92201759664567

Отслеживайте COSMOS 1249 COOLANT в реальном времени с AllMySat

Download on the App Store